2006 Woodbridge Cross Country Classic
Meet results can be found on the internet at http://www.gvarvas.com
 
 
 
Individual Race Results - Race 14 10:25 am Div. III Varsity Women Heat 1 (3M)
Place Bib# Name Yr Team Time
1 6769 Nielsen, Katherine 12 Irvine 17:47
2 6908 Davis, Lauren 11 Mater Dei 18:05
3 6620 Rigby, Julia 11 FOOTHILL 18:23
4 6831 Meyer, Jessica 10 Laguna Hills 18:25
5 7200 Curtis, Chloe 9 Redondo Union 18:30
6 6571 Gross, Carly 9 FOOTHILL 18:31
7 8017 Mitchell, Cassie 12 Tustin 18:33
8 8159 Kautiainen, Rella 9 VALENCIA, S.C. 18:37
9 6067 Esquivel, Vanessa 11 CHINO 18:39
10 7083 Petkovic, Megan 11 Pacifica G.G 18:49
11 6408 RINCON, PRISCILA 10 DIAMOND RANCH 18:57
12 7195 Bullington, Lauren 12 Redondo Union 18:59
13 6545 Case, Katie 11 FOOTHILL 19:01
14 6929 Horstmann, Mary 12 Mater Dei 19:01
15 6742 Cook, Vivien 11 Irvine 19:03
16 6076 Jones, Jaleesa 11 CHINO 19:03
17 7379 Stephens, Courtney 12 San Pedro 19:06
18 8212 Nestor, Shannon 10 Valley View 19:07
19 6551 Cummins, Natalie 11 FOOTHILL 19:09
20 6667 Coates, Chelsea 10 Huntington Beach 19:09
21 8250 Emery, Jamie 11 Wilson 19:10
22 7659 Jones, Elizabeth 12 South Torrance 19:13
23 8400 Newton, Ashley 11 Centennial (Corona) 19:14
24 6943 McNamara, Meghan 11 Mater Dei 19:17
25 8018 Mitchell, Teri 11 Tustin 19:19
26 6839 Nourmohamadian, Gina 11 Laguna Hills 19:19
27 6836 Molinar, Merissa 11 Laguna Hills 19:20
28 7963 Schell, Jessica 11 Torrance 19:22
29 6778 Sanchez, Meghan 11 Irvine 19:23
30 6910 DePasquale, Caitlin 10 Mater Dei 19:23
31 6093 Villanueva, Jackie 11 CHINO 19:25
32 6591 Kowsky, Kerri 10 FOOTHILL 19:25
33 6683 McDole, Emily 10 Huntington Beach 19:27
34 8216 Perez, Deserae 10 Valley View 19:31
35 6451 Valenzuela, Tania 12 El Dorado 19:31
36 6883 Vaughn, Kasey 11 Louisville 19:32
37 7128 Salazar, Susana 11 Palm Springs 19:32
38 8152 Digiallonardo, Ana 11 VALENCIA, S.C. 19:36
39 7854 Wong, Megan 12 Temple City H. S. 19:37
40 6951 O’Hara, Pilar 11 Mater Dei 19:38
41 6969 Stice, Taylor 10 Mater Dei 19:40
42 5903 Horgan, Michelle 12 Burbank 19:41
43 7070 Foerster, Shelley 11 Pacifica G.G 19:42
44 6615 Paquette, Jacqueline 10 FOOTHILL 19:42
45 8166 McDaniel, Michelle 10 VALENCIA, S.C. 19:43
46 6853 Schwarz, Melissa 12 Laguna Hills 19:44
47 8165 Mcdaniel, Megan 10 VALENCIA, S.C. 19:46
48 6649 Weir, Ellie 11 FOOTHILL 19:47
49 7209 Hershler, Sara 10 Redondo Union 19:48
50 6686 Pilecki, Jenny 9 Huntington Beach 19:49
51 5648 Day, Mallory 12 Apple Valley 19:50
52 7358 St. Cyr, Priscilla 11 San Jacinto 19:50
53 6772 Pham, Thoa 12 Irvine 19:51
54 7284 MEJIA, AMALIA 12 SA VALLEY 19:53
55 7357 Romero-Flores, Monique 10 San Jacinto 19:54
56 7101 Darby, Kelly 12 Palm Springs 19:56
57 5906 Jolly, Kiran 12 Burbank 19:56
58 6796 Burkhard, Natalie 11 Laguna Hills 19:56
59 7933 Matsukawa, Christie 12 Torrance 19:57
60 6458 CASTILLO, ERICA 11 Elsinore 19:57
61 6790 Yardley, Lisa 9 Irvine 19:57
62 6970 Stice, Tiffany 10 Mater Dei 19:57
63 6727 Polanco, Esbeydi 12 Indio 19:58
64 6476 Barber, Amanda 12 Enterprise 19:58
65 7350 Meza, Olivia 10 San Jacinto 20:00
66 6824 Licona, Nancy 10 Laguna Hills 20:01
67 7819 Rodriguez, Vilma Susa 12 Temple City H. S. 20:02
68 6401 PEREZ, STEFANIE 12 DIAMOND RANCH 20:03
69 6484 Mcrae, Melissa 9 Enterprise 20:05
70 6828 Mader, Erin 12 Laguna Hills 20:05
71 7821 Sanderson, Faith 12 Temple City H. S. 20:07
72 6490 Winstead, Breanna 10 Enterprise 20:07
73 8235 Brown, Aine 12 Wilson 20:08
74 8248 DiStefano, Ariana 10 Wilson 20:10
75 6405 PRIETO, ANDIE 10 DIAMOND RANCH 20:10
76 7086 Rooney, Kristen 12 Pacifica G.G 20:11
77 5854 Wirtschafter, Valerie 11 Beverly Hills 20:11
78 8208 Martinez, Marissa 11 Valley View 20:12
79 6700 Argandona, Evelyn 11 Indio 20:12
80 8231 Anderson, Claire 12 Wilson 20:13
81 6721 Mancillas, Angelica 12 Indio 20:17
82 8336 Morrison, Kara 10 Yucaipa 20:22
83 6398 NOLAN, SHANTELL 12 DIAMOND RANCH 20:23
84 6369 AGUILAR, ALEXIS 10 DIAMOND RANCH 20:28
85 7307 Beall, Crystal 11 San Gorgonio 20:28
86 7199 Corpuz, Lori 10 Redondo Union 20:31
87 6419 Brewer, Brooke 10 El Dorado 20:32
88 8305 Boland, Kiley 9 Yucaipa 20:33
89 7375 Post, Maddy 11 San Pedro 20:33
90 7413 Cruz, Gabi Santa Monica 20:34
91 5783 Jabbari, Sara 10 Beverly Hills 20:36
92 7373 Olivares, Alex 12 San Pedro 20:38
93 5650 Escatel, Samantha 12 Apple Valley 20:40
94 7318 Grijalva, Yahairya 12 San Gorgonio 20:42
95 7778 Iida, Jessica 11 Temple City H. S. 20:42
96 6390 LEE, AGIE 12 DIAMOND RANCH 20:47
97 8156 HARADA, KATIE 10 VALENCIA, S.C. 20:48
98 7088 Sendejas, Michelle 10 Pacifica G.G 20:48
99 7003 Fukushima, Naho 12 North Torrance 20:49
100 6704 Chaidez, Janeth 12 Indio 20:49
101 6671 Franco, Veronica 12 Huntington Beach 20:50
102 5904 Horgan, Natalie 12 Burbank 20:50
103 6737 Bloom, Jessica 10 Irvine 20:52
104 7149 Alvarez, Elizabeth 11 Ramona 20:53
105 7188 Baker, Rachel 11 Redondo Union 20:55
106 6780 Silva, Analicia 9 Irvine 20:56
107 6317 IHRIG, JESSICA 12 DIAMOND BAR 20:57
108 6665 Biegel, Donna 9 Huntington Beach 20:59
109 7433 Gonzalez, Karissa Santa Monica 21:00
110 7668 Kono, Cynthia 11 South Torrance 21:00
111 6418 Bradley, Ashley 10 El Dorado 21:01
112 8150 Del Vecchio, Nicole 10 VALENCIA, S.C. 21:02
113 8107 Martinez, Johanna 12 University (Irvine) 21:07
114 8177 ROARK, LINDSEY 11 VALENCIA, S.C. 21:07
115 5909 Koudikian, Lucy 12 Burbank 21:08
116 6488 Spence, Jerri 10 Enterprise 21:09
117 7384 Traughber, Nora 12 San Pedro 21:10
118 6673 Gianonne, Laura 12 Huntington Beach 21:10
119 8466 Hall, Amanda 12 Redondo Union 21:11
120 6877 Montano, Domonique 12 Louisville 21:16
121 6661 Villarreal, Jasmine 11 Hawthorne 21:19
122 6477 Elton, Melissa 10 Enterprise 21:19
123 6708 Cota, Alyssa 12 Indio 21:20
124 7381 Thomas, Akiko 11 San Pedro 21:21
125 6407 RINCON, EMILIA 11 DIAMOND RANCH 21:21
126 7937 Messer, Natasha 12 Torrance 21:24
127 6873 Kratz, Margaret 12 Louisville 21:24
128 6441 Rentch, Erin 12 El Dorado 21:24
129 7059 Abadjian, Candace 11 Pacifica G.G 21:25
130 7959 Rocha, Gysselle 12 Torrance 21:26
131 8274 Morris, Asia 11 Wilson 21:28
132 6424 Dunn, Christine 11 El Dorado 21:30
133 5652 Hernandez, Jazmin 12 Apple Valley 21:30
134 6520 Morales, Neyva 12 Fontana 21:33
135 8346 Adams, Selina 11 Yucaipa 21:34
136 7222 McGlaughlin, Katie 10 Redondo Union 21:35
137 8335 Marsteller, Taylor 10 Yucaipa 21:39
138 7979 Tanaka, Courtney 12 Torrance 21:39
139 6431 Hernandez, Kaytlin 11 El Dorado 21:40
140 5653 jimenez, bobbi 11 Apple Valley 21:41
141 7364 Caracoza, Rebecca 12 San Pedro 21:44
142 7093 Velasquez, Autumn 9 Pacifica G.G 21:45
143 7911 Huey, Natasha 10 Torrance 21:46
144 6325 KOU, EILEEN 11 DIAMOND BAR 21:49
145 8358 Todd, Taylor 11 Yucaipa 21:49
146 6870 Delhoyo, Gaby 11 Louisville 21:51
147 7705 Salinas, Victoria 11 South Torrance 21:51
148 7441 Horn, Rachel 11 Santa Monica 21:51
149 8028 Rosenau, Lauren 10 Tustin 21:52
150 8025 Phan, Angela 12 Tustin 22:01
151 8004 Denno, Katie 12 Tustin 22:04
152 8193 Badaraco, Lila 10 Valley View 22:05
153 7354 Ponce, Jessica 11 San Jacinto 22:06
154 7393 Banach, Catherine Santa Monica 22:08
155 8252 Enguidanos, Milena 12 Wilson 22:13
156 8109 Mjolness, Clare 12 University (Irvine) 22:17
157 5886 Browne, Amanda 12 Burbank 22:17
158 6421 Chen, Jacklyn 11 El Dorado 22:18
159 7739 Chan, Christine 11 Temple City H. S. 22:19
160 6521 Palos, Martha 11 Fontana 22:23
161 6885 Youssef, Mary 10 Louisville 22:23
162 7342 Ballard, Ashley 11 San Jacinto 22:28
163 7485 Stocking, Sophie Santa Monica 22:29
164 6030 Lopez, Elizabeth 12 CENTURY 22:32
165 6714 Flores, Nancy 11 Indio 22:34
166 6986 Annon, Ariel 11 North Torrance 22:35
167 6301 FAAIUASO, CELESTE 11 DIAMOND BAR 22:35
168 7469 Nakamura, Maki Santa Monica 22:35
169 8339 Ray, Rebecca 11 Yucaipa 22:45
170 7336 Smith, Delfina 10 San Gorgonio 22:47
171 7140 Montes, Angela 12 Polytechnic (LA) 22:48
172 7061 Biedermann, Traci 10 Pacifica G.G 22:51
173 6263 Aragon, Veronica 12 Desert Mirage 22:54
174 7319 Hernadez, Erika 11 San Gorgonio 22:59
175 7316 Flores, Janet 11 San Gorgonio 23:04
176 7147 Alfred, Claire 12 Ramona 23:20
177 5694 Maria, Antonio 11 Arlington 23:21
178 5779 Hefflin, Raquel 9 Beverly Hills 23:27
179 7745 Chen, Annie 11 Temple City H. S. 23:28
180 7841 Tsang, Serena 12 Temple City H. S. 23:28
181 8090 Irvin, Christina 12 University (Irvine) 23:29
182 7325 Martinez, Ariana 11 San Gorgonio 23:30
183 7995 Beames, Katie 11 Tustin 23:36
184 7388 Aguilar, Jennifer Santa Monica 23:37
185 6034 Moreno, Jacqueline 12 CENTURY 23:38
186 7142 Rivera, Marta 12 Polytechnic (LA) 23:43
187 7338 Sproull, Shannon 12 San Gorgonio 23:43
188 5888 Burns, Allyson 12 Burbank 23:47
189 8191 Anda, Pamela 12 Valley View 23:48
190 8332 Llaurado, Alex 10 Yucaipa 24:02
191 6063 Cook, Kelsey 12 CHINO 24:07
192 6268 Perez, Magie 12 Desert Mirage 24:07
193 6489 Walker, Maryann 12 Enterprise 24:09
194 5757 Chait, Brittany 11 Beverly Hills 24:12
195 6498 Camacho, Yamilet 11 Fontana 24:13
196 5659 verduzco, tiffany 9 Apple Valley 24:35
197 5753 Cascante, Sarah 10 Beverly Hills 25:00
198 7895 Gomez, Jessica 12 Torrance 25:10
199 5655 quieros, claudia 11 Apple Valley 25:29
200 6880 Osborne, Leah 12 Louisville 25:36
201 8012 Hernandez, Jessica 11 Tustin 26:10
202 5660 Wong, Nadine 11 Apple Valley 26:48
203 8139 Widyolar, Delaney 12 University (Irvine) 27:08
204 6269 Reyes, Ruby 12 Desert Mirage
205 7170 Martinez, Monica 11 Ramona
206 6049 Valerio, Araceli 11 CENTURY
207 6029 Huerta, Karina 11 CENTURY
208 8060 Dellinger, Erin 12 University (Irvine)
209 6051 Zavala, Brenda 12 CENTURY
210 6025 Corona, Karen 12 CENTURY
 
9/16/2006 1